Location: 22
(39.7117°N, 89.5929°W)
Time: 09:14:28
(UTC-05:00)

Transit 2A - Pass Details

Date: 03 August 2024
Orbit: 590 x 961 km, 66.7° (Epoch: 13 September)

Event Time Altitude Azimuth Distance (km) Brightness Sun altitude
Rises 05:59:51 0° 215° (SW) 3,165 8.7 -0.8°
Reaches altitude 10° 06:02:08 10° 218° (SW) 2,301 8.0 -0.4°
Maximum altitude 06:07:25 67° 301° (WNW) 896 6.3 0.5°
Drops below altitude 10° 06:13:20 10° 25° (NNE) 2,561 9.5 1.6°
Sets 06:15:59 0° 28° (NNE) 3,551 10.3 2.0°
